Theta_e
310 310 310 309 310 310 310 310 310 310 310 310 310 310 310 310 310 310 311 311 311 311 311 312 312 312 312 312 313 313 313 313 314 314 315 315 315 314 314 315 314 314 313 314 315 316 316 316 317 317 317 317 317 320 321 320 320 320 323 323 323 324 323 322 322 322 320 320 319 319 319 318 318 318 318 318 318 318 317 318 318 318 318 318 318 319 319 318
310 309 309 310 310 310 310 310 310 310 310 310 310 310 310 310 310 310 310 310 311 311 311 311 311 312 312 312 312 313 314 314 315 316 317 316 315 314 314 314 314 314 313 314 315 315 317 317 317 317 317 319 319 320 322 321 320 321 323 323 323 324 323 322 321 321 321 320 319 318 319 318 318 318 318 317 317 317 317 317 317 317 318 318 318 319 319 319
310 310 310 310 310 310 310 310 310 310 310 310 310 310 310 310 310 310 311 311 310 311 311 311 312 312 312 312 313 313 314 315 316 318 316 314 314 314 315 315 314 314 313 314 316 316 317 317 317 318 317 319 320 321 322 322 321 321 322 323 322 322 322 321 320 320 320 320 319 319 318 318 318 318 318 318 318 318 318 317 317 317 317 317 317 317 318 318
310 310 311 311 311 311 311 311 311 311 310 311 310 310 310 310 310 310 311 311 311 311 311 311 311 312 312 312 313 313 314 317 319 318 315 314 315 315 315 315 314 314 314 314 315 317 317 317 317 317 317 318 319 321 322 321 321 320 321 322 321 321 320 319 319 320 320 319 319 319 318 318 317 318 318 318 318 317 317 317 317 317 317 317 316 317 317 317
311 311 311 311 312 312 312 312 312 312 312 312 312 312 312 311 311 311 311 311 311 311 311 312 312 312 312 313 313 314 315 319 319 316 314 315 316 316 316 315 314 314 314 314 314 316 316 316 316 317 317 317 318 319 320 321 320 320 320 321 321 320 319 319 319 320 320 319 319 319 318 318 317 317 318 318 318 317 317 317 317 317 317 317 317 317 317 317
312 312 312 313 313 313 314 314 314 314 314 314 314 314 314 314 314 313 313 313 313 313 313 313 313 314 314 314 314 314 316 318 318 316 316 316 316 316 316 315 314 314 314 314 314 315 315 316 316 317 317 317 318 318 318 319 320 320 320 319 320 319 318 318 318 319 319 319 319 319 319 318 317 317 317 317 317 317 317 317 317 317 318 318 318 317 317 317
314 314 315 316 316 317 317 317 317 317 317 318 317 317 317 317 316 316 316 316 315 316 315 316 316 316 316 315 315 314 315 317 318 318 317 316 317 316 315 315 314 314 315 314 314 315 316 316 316 316 317 317 317 317 317 318 318 320 321 319 319 318 317 317 318 319 319 318 318 318 318 317 317 317 316 317 317 317 317 317 317 317 317 317 317 317 317 317
317 318 319 320 320 320 321 321 321 321 322 322 322 322 322 322 321 321 321 320 320 320 320 320 319 319 319 318 316 315 316 317 317 318 317 317 316 316 315 315 314 315 315 314 315 316 316 316 317 316 317 317 317 317 317 317 317 319 319 319 319 318 318 318 318 318 318 318 317 318 317 317 317 317 316 316 316 316 316 316 316 316 316 316 317 317 317 316
320 320 320 319 319 319 320 320 320 321 321 321 321 321 321 322 322 322 322 323 323 323 324 324 323 323 323 321 317 316 319 319 318 318 317 316 315 316 316 315 315 315 315 315 316 317 317 317 317 317 317 317 317 317 317 317 317 317 317 317 317 317 317 317 316 316 316 316 317 317 317 317 317 316 316 316 316 316 316 316 316 317 316 316 316 316 316 316
318 317 316 316 316 316 316 316 316 316 316 316 316 316 317 317 317 317 318 318 319 319 321 321 323 323 323 322 318 317 321 321 319 317 316 316 316 315 315 316 316 315 315 316 316 317 317 317 317 318 317 317 316 316 317 316 316 317 317 316 316 316 316 316 315 315 315 315 316 316 316 316 316 316 316 316 316 317 317 317 316 317 316 316 316 316 315 315
315 315 315 315 315 315 315 315 315 315 315 315 315 315 315 315 315 315 315 315 315 315 315 316 317 319 320 320 318 319 323 321 319 318 318 320 319 316 315 315 315 315 316 316 317 317 317 317 317 317 317 316 316 316 316 316 316 316 315 315 315 315 315 315 315 315 315 316 316 316 316 315 315 315 315 316 317 317 317 317 317 316 316 316 316 316 316 315
314 314 315 315 315 315 315 315 315 315 316 315 316 316 315 316 316 316 316 316 316 315 315 314 313 314 316 316 317 320 323 322 322 322 322 322 320 317 314 313 313 314 316 317 318 317 316 317 317 316 316 315 316 316 315 315 315 315 314 314 314 314 315 315 315 316 316 316 316 315 315 316 316 317 317 317 318 317 317 317 317 316 316 316 316 315 315 315
314 314 314 314 314 314 314 314 315 315 315 315 315 316 316 317 317 317 317 316 316 316 315 315 314 313 313 314 316 318 319 320 321 321 321 321 319 317 315 313 312 313 315 316 317 318 317 316 316 316 316 316 316 315 314 314 315 314 314 314 314 315 316 316 317 317 316 316 316 315 316 317 317 318 318 318 318 317 317 317 316 316 316 315 315 315 315 315
313 314 313 314 314 314 314 315 315 316 316 317 318 319 319 320 320 320 320 319 319 318 317 316 315 314 312 314 316 316 316 317 317 318 318 318 318 318 316 314 313 313 314 315 316 317 317 316 315 315 315 315 315 315 314 315 315 314 315 315 316 316 317 318 318 316 316 315 314 315 315 316 316 317 318 318 317 317 316 316 315 315 315 315 315 316 316 315
313 314 314 314 315 315 316 317 317 318 320 321 322 322 323 323 322 322 322 322 321 321 320 318 316 315 314 315 316 315 315 315 315 316 317 317 317 316 316 315 313 312 313 313 314 315 316 315 314 315 315 315 315 315 314 314 315 314 316 317 318 318 317 320 318 316 316 315 313 315 316 316 316 317 317 317 316 316 315 315 315 315 315 316 316 315 315 315
314 314 315 316 316 317 318 320 321 322 323 323 323 323 323 323 323 323 323 322 322 322 320 318 317 315 315 316 317 316 316 315 316 316 316 316 316 315 315 314 312 312 311 312 312 313 314 313 314 315 315 315 314 315 315 316 317 317 317 318 320 320 318 320 319 315 315 315 313 314 316 316 316 316 316 316 315 315 315 315 315 315 316 316 316 315 315 314
316 317 317 318 319 320 321 322 323 323 323 323 322 322 322 322 322 322 322 322 322 321 319 318 316 314 315 317 318 317 316 316 316 316 315 315 315 314 314 314 313 312 311 312 312 312 313 313 314 314 314 314 314 315 317 318 319 320 320 319 320 320 319 320 320 317 315 315 314 314 314 314 315 315 315 315 315 315 315 315 315 316 316 316 316 314 312 311
318 319 320 321 321 322 322 322 322 322 322 322 322 322 322 322 322 323 323 321 320 319 317 316 315 317 319 318 317 317 316 316 316 315 315 314 314 314 314 314 313 312 312 312 312 312 313 313 314 315 315 315 314 315 318 320 320 320 320 319 319 320 319 319 320 318 317 316 316 315 314 314 315 315 314 315 315 315 315 315 316 316 316 316 314 311 309 308
320 321 321 322 322 322 322 321 321 322 321 322 321 322 322 322 323 322 320 319 319 320 320 316 316 320 321 317 316 317 316 316 316 315 315 315 314 314 313 314 313 313 313 314 314 313 313 314 315 317 317 316 315 315 317 318 318 318 319 319 319 319 319 318 319 318 318 317 317 317 316 315 315 316 315 315 315 315 315 315 316 316 315 313 311 309 307 306
321 321 321 322 321 321 322 322 322 322 322 322 321 322 323 323 323 322 318 318 319 322 322 320 318 319 319 318 318 318 317 317 316 316 316 315 315 314 313 313 313 313 314 317 316 313 314 317 318 318 317 317 317 317 317 317 317 318 319 319 319 319 318 318 319 318 316 316 317 317 317 316 315 315 314 315 315 315 315 315 316 314 312 310 309 307 306 305
321 322 321 322 322 322 323 323 322 322 322 322 321 321 321 321 322 321 319 320 322 322 322 322 321 321 320 321 321 320 319 318 317 316 316 315 314 314 314 314 314 315 316 317 316 314 315 318 319 318 317 317 318 318 318 318 318 318 319 319 319 319 318 318 318 318 315 316 317 316 316 315 314 315 314 315 315 315 315 315 314 311 310 309 307 306 305 304
321 322 322 322 323 323 323 322 322 322 322 321 321 321 321 321 320 320 319 319 321 322 322 322 322 322 322 322 321 321 320 318 317 316 315 314 314 315 315 315 315 316 317 317 317 317 318 318 318 317 317 317 318 318 319 319 319 319 319 319 320 319 319 318 318 317 314 315 316 315 315 315 314 314 314 314 316 316 315 313 311 310 309 308 307 306 305 304
322 322 322 323 324 323 323 322 322 322 321 321 321 321 321 321 321 321 319 316 318 322 322 322 322 322 322 322 321 319 317 317 318 317 316 315 314 315 316 315 316 317 318 317 318 320 320 318 317 317 317 317 318 318 319 319 319 319 319 319 320 319 319 320 318 316 315 315 316 316 315 314 314 314 315 315 316 314 312 311 310 309 308 307 306 305 304 303
323 323 323 324 324 324 323 322 321 320 320 320 321 321 321 321 321 320 318 316 319 321 321 321 321 321 321 319 317 317 316 317 318 318 317 315 314 315 316 316 316 317 318 317 317 319 320 319 318 317 317 318 318 318 320 319 318 320 321 321 319 318 319 319 318 317 315 316 316 316 317 317 315 316 317 317 317 313 310 310 309 308 307 306 305 304 303 303
324 324 325 325 324 324 323 322 321 321 321 321 321 321 322 321 321 318 315 317 320 321 321 321 319 319 319 317 316 316 316 316 317 316 315 315 315 315 316 317 317 317 318 318 318 318 318 318 318 318 318 319 319 318 320 320 319 320 322 322 319 318 318 318 318 318 317 318 317 316 321 321 319 319 319 319 317 312 310 310 308 308 307 306 305 304 303 302
324 325 325 325 325 324 322 322 322 321 321 322 321 321 322 320 319 316 315 319 322 322 322 320 318 317 315 315 314 315 316 315 314 315 315 315 315 315 315 317 317 317 317 317 318 319 318 316 317 319 318 320 320 319 318 319 318 319 321 321 318 316 318 318 317 318 319 320 316 315 320 321 318 318 318 319 318 312 309 309 308 307 306 305 304 303 302 301
324 325 325 326 325 323 322 323 322 320 322 323 322 321 321 320 318 315 317 323 325 324 320 317 317 316 313 313 312 313 317 316 313 313 314 314 315 314 315 316 317 316 315 316 320 321 318 318 318 318 318 320 321 319 319 318 319 321 320 318 316 315 317 318 317 318 319 318 316 316 319 319 318 318 317 319 319 313 309 309 308 307 306 304 304 302 302 301
324 325 325 325 325 323 322 322 321 320 322 323 322 321 320 319 317 315 320 327 327 321 317 314 314 314 312 312 312 312 314 313 313 313 312 313 314 313 314 315 316 316 314 317 321 319 317 320 320 318 319 319 319 319 320 318 318 321 319 316 315 315 316 317 317 318 318 317 318 318 318 320 319 318 317 319 318 313 310 309 307 306 305 304 303 302 301 300
325 325 325 325 324 323 322 321 319 319 321 320 320 320 319 318 317 316 320 326 325 318 316 314 312 312 312 311 311 311 310 311 313 312 311 312 313 312 312 313 313 315 315 315 319 319 316 316 316 317 319 319 317 319 321 321 318 317 316 315 316 316 316 317 317 317 317 317 318 319 319 320 320 319 319 320 318 314 310 309 307 306 305 304 303 302 301 300
325 325 324 324 324 323 322 321 318 317 318 318 320 321 319 319 317 319 322 323 321 318 314 313 313 313 312 312 312 312 311 311 312 311 311 312 312 311 311 311 311 313 316 315 317 317 313 310 311 314 317 316 315 316 317 320 317 314 314 316 317 319 318 317 318 316 317 318 319 319 319 318 322 324 320 319 318 314 310 309 307 305 304 303 302 302 300 299
324 324 323 323 323 322 321 320 318 317 317 319 321 320 319 320 320 321 323 321 319 318 315 314 314 313 312 314 314 313 311 312 311 312 312 311 312 311 311 312 312 313 316 317 318 317 313 312 313 313 312 312 315 315 313 314 314 313 315 315 317 320 318 316 317 316 318 322 322 320 319 318 322 325 318 315 315 313 310 309 306 304 303 302 301 301 300 299
323 323 322 322 321 321 320 320 318 317 318 319 320 319 321 322 322 321 321 319 320 321 318 317 315 314 314 315 316 315 314 313 312 312 313 313 313 312 313 314 315 317 319 319 320 319 318 316 315 313 312 311 315 315 314 313 313 313 315 314 317 321 320 320 320 319 320 322 321 321 322 320 319 320 317 314 312 311 310 308 306 304 302 301 300 300 299 298
322 321 321 320 321 320 320 319 318 317 318 319 318 319 321 321 321 321 319 319 322 321 318 317 315 314 315 316 317 318 317 315 312 312 314 315 316 315 315 315 316 320 321 320 320 321 321 319 316 315 315 312 312 314 317 317 314 312 315 318 320 321 321 322 322 322 323 322 320 318 320 321 319 317 316 312 307 307 307 306 305 303 301 300 299 299 298 297
322 321 320 319 319 319 319 318 317 316 317 318 319 319 319 320 321 321 321 321 321 319 318 318 317 316 316 318 318 317 318 317 313 313 315 316 317 318 318 316 316 318 318 319 319 319 321 321 318 318 317 313 312 313 316 318 314 313 316 320 322 321 321 320 321 322 323 322 320 317 319 322 320 315 311 307 305 304 303 303 302 301 300 300 298 298 297 297
321 320 319 318 318 318 318 317 316 316 317 319 320 320 319 319 320 319 320 321 320 319 318 318 319 319 319 319 319 316 317 318 315 314 316 317 318 319 320 317 316 316 317 320 321 319 320 321 318 316 314 312 313 314 313 316 318 317 317 319 321 321 320 320 321 321 321 322 321 319 322 322 316 311 307 305 304 303 302 302 301 300 300 299 298 297 297 296
319 318 318 317 317 317 317 316 317 318 319 320 320 320 319 318 319 319 320 319 319 320 319 319 321 321 320 319 320 319 317 317 318 317 318 318 319 319 319 317 316 315 317 319 320 319 321 321 318 315 313 311 312 314 312 314 318 318 318 320 319 318 318 320 321 320 319 321 320 318 320 319 315 311 307 305 304 303 302 301 300 300 299 298 298 297 296 296
317 316 316 316 316 317 316 316 318 320 320 320 320 318 317 317 317 317 318 318 317 318 319 321 321 320 320 319 321 321 318 318 319 318 318 319 319 319 318 317 315 314 316 318 319 320 321 320 318 317 317 312 309 311 311 311 315 318 319 318 316 317 318 318 319 319 320 320 319 318 318 317 316 315 309 306 305 303 302 301 300 299 299 298 297 296 296 295
316 315 314 315 315 315 314 315 318 320 320 320 319 317 316 316 316 316 317 317 317 317 319 320 319 318 318 318 319 321 320 319 320 319 319 320 319 318 317 316 313 311 313 314 316 318 319 319 318 317 319 315 309 311 315 312 313 315 315 314 315 319 320 318 318 318 320 319 318 318 317 316 317 316 312 309 307 303 302 302 300 299 298 298 297 296 296 296
313 312 312 314 314 314 314 314 317 319 319 318 317 316 315 315 315 315 317 316 316 318 319 318 317 317 317 317 318 320 320 319 320 319 319 320 319 317 315 316 314 311 312 313 316 318 318 319 320 316 316 316 313 315 318 316 314 313 312 313 316 318 317 317 318 318 318 318 318 317 316 317 316 313 312 310 306 304 303 302 300 299 298 298 297 296 296 297
311 310 312 314 314 313 313 313 316 318 319 317 316 315 315 315 315 315 316 316 316 318 318 318 317 316 317 317 317 318 320 320 319 319 319 318 319 317 315 316 315 312 312 313 317 319 318 318 319 316 315 316 317 316 317 316 315 315 314 314 315 315 316 316 316 317 317 316 317 317 316 318 314 309 308 308 306 305 303 301 300 298 298 297 297 297 296 296
309 310 313 314 313 313 312 314 316 318 318 316 315 314 315 315 317 316 315 316 316 317 317 317 318 317 317 317 316 317 320 321 319 318 319 317 317 317 316 315 314 312 312 315 317 317 316 317 317 317 316 316 316 315 314 314 314 315 315 314 314 315 316 316 315 316 316 315 316 316 316 318 311 305 307 307 305 304 302 300 299 298 298 297 297 296 296 295
308 311 313 313 313 312 313 315 317 317 317 316 315 315 315 315 317 317 315 315 316 317 316 317 318 318 318 318 317 317 319 320 319 319 319 318 317 318 316 314 313 313 313 315 317 315 314 315 316 316 316 315 314 313 312 313 313 313 314 314 315 315 315 316 315 315 315 315 315 315 315 315 309 303 304 304 302 302 301 300 299 298 298 298 297 296 296 295
308 311 313 313 312 312 313 316 317 316 317 317 315 315 315 316 316 316 316 315 316 316 316 316 316 317 318 317 317 317 318 318 318 318 318 318 317 316 315 314 314 314 314 315 316 314 312 314 315 315 314 313 314 313 312 314 314 314 314 313 314 314 314 315 314 313 314 314 314 314 314 314 308 302 302 302 301 301 301 300 300 299 298 298 297 297 296 295
308 310 312 312 311 312 314 315 316 316 316 316 316 316 316 316 316 316 316 316 316 316 316 316 315 315 316 316 316 316 316 316 316 316 317 316 315 313 313 313 313 312 313 314 314 312 312 314 314 314 314 313 313 312 313 316 316 314 314 313 312 312 313 314 312 312 312 313 313 313 313 314 309 302 301 301 301 301 301 301 300 299 299 299 298 297 296 295
308 309 311 311 311 312 314 314 314 315 316 316 316 317 316 316 316 316 316 316 315 315 315 315 314 314 314 315 315 315 315 315 315 315 315 315 314 313 311 311 311 310 309 309 309 310 312 313 313 313 312 312 311 311 312 314 313 312 312 312 311 310 310 311 312 311 311 311 312 312 312 312 309 304 303 303 302 302 301 300 300 300 300 299 299 297 297 296
308 309 310 311 311 313 313 314 314 314 315 316 316 316 316 316 316 315 316 316 315 314 314 314 313 313 314 314 314 314 314 314 314 314 314 314 314 313 311 311 311 309 307 308 308 309 310 311 311 312 312 311 311 311 311 310 309 309 310 309 309 308 308 308 308 308 308 308 308 308 308 308 308 307 307 306 304 304 302 299 299 300 300 299 298 297 297 297
307 308 310 311 312 313 313 313 314 314 314 315 315 315 315 316 315 314 315 314 314 313 313 313 313 313 313 313 313 313 313 313 313 313 313 313 313 313 311 310 310 309 308 308 308 308 309 309 310 310 310 310 310 309 308 307 307 307 307 307 307 307 307 308 307 306 306 307 307 306 306 307 306 306 307 307 306 306 303 300 300 300 300 299 298 297 296 296
306 306 308 310 311 312 313 313 313 313 314 314 314 314 315 315 314 314 314 313 312 312 312 312 312 312 312 312 312 312 311 311 312 311 311 312 312 312 311 310 309 308 307 308 307 307 307 308 307 306 306 306 306 305 305 305 305 305 306 306 306 306 307 307 306 306 306 307 306 306 306 307 306 306 306 306 305 304 303 302 302 302 300 299 298 296 295 294
305 303 304 307 309 310 311 312 312 312 313 313 313 313 313 314 313 313 313 312 311 312 311 311 311 311 312 312 311 311 310 310 310 310 310 311 311 310 309 309 308 306 306 307 307 306 306 307 306 305 305 305 305 305 305 305 305 304 305 305 305 305 306 305 306 306 306 306 306 306 306 306 305 305 305 304 303 302 302 302 302 301 299 298 297 296 295 294
303 302 302 305 306 306 308 310 312 312 312 313 313 313 312 312 313 312 311 311 310 310 310 310 310 311 312 312 311 311 310 309 310 310 309 309 309 308 308 307 306 305 305 306 305 305 305 306 305 304 304 304 304 304 304 305 305 304 304 305 305 305 305 306 305 306 306 306 305 305 305 304 304 303 302 302 301 300 300 299 298 297 297 297 296 296 295 295
300 300 301 303 305 305 305 308 310 311 312 312 312 312 311 311 312 311 310 310 309 309 309 309 310 310 309 309 309 308 307 306 307 307 305 306 306 306 305 306 305 304 304 304 304 304 305 305 304 303 303 303 302 303 303 304 304 304 303 303 304 304 304 304 304 305 305 304 304 304 303 304 304 302 300 300 300 298 298 297 296 295 295 295 295 295 295 295
298 299 299 300 304 305 304 306 309 310 311 311 310 310 310 310 310 310 309 308 306 307 308 308 309 308 307 307 307 304 303 303 303 303 302 302 302 302 302 303 303 303 304 303 303 304 304 304 303 303 302 302 302 303 303 302 302 301 301 301 302 302 302 302 303 304 304 303 303 303 303 304 303 300 299 300 299 297 296 295 295 294 294 293 293 293 293 293
Wind_Speed
3 2 2 2 2 1 1 1 1 1 1 1 2 2 2 2 3 3 4 4 5 5 6 6 6 7 7 9 10 11 12 12 14 15 17 13 6 4 3 4 4 4 4 3 5 4 2 1 2 2 3 4 3 4 5 3 3 2 0 2 3 4 4 4 4 4 4 5 5 3 7 6 5 5 4 6 9 13 17 21 21 20 20 23 24 20 18 18
2 2 2 2 1 1 1 2 1 1 2 2 2 2 2 3 3 4 4 5 5 6 6 7 7 7 8 9 10 12 12 14 16 15 14 8 4 3 2 5 4 4 4 3 3 2 1 2 4 5 4 6 4 5 5 4 5 4 2 2 4 4 6 9 9 8 6 6 10 11 12 10 8 12 9 6 9 12 14 18 20 21 21 21 20 19 18 18
2 2 2 2 2 2 2 3 3 3 3 4 4 4 4 4 5 5 5 6 6 7 7 8 8 8 9 9 11 11 13 17 16 11 5 3 7 2 6 8 4 3 3 2 1 3 3 4 5 6 6 7 6 5 5 5 6 7 5 3 5 5 7 11 12 11 11 10 10 10 12 12 13 15 10 7 10 10 11 15 16 18 20 21 21 19 17 17
3 3 3 3 3 3 4 4 4 4 5 5 6 6 6 6 7 7 7 8 8 8 8 9 9 10 10 11 12 11 15 16 8 4 2 7 3 5 10 10 5 4 4 4 4 5 6 6 4 6 7 8 8 7 5 7 6 6 6 3 5 7 8 11 17 15 12 10 8 9 12 12 15 14 9 8 8 7 12 18 18 19 23 25 26 23 20 19
4 4 4 4 4 5 5 6 6 6 6 7 7 8 8 8 9 9 9 10 10 10 10 11 11 11 12 12 12 12 13 8 1 1 4 4 5 11 12 10 5 5 5 5 5 6 8 6 5 7 7 6 9 7 6 12 10 4 6 9 10 10 8 12 18 13 10 10 9 10 9 11 14 13 12 10 7 9 16 22 24 27 27 27 26 24 23 22
6 6 6 6 7 7 7 8 8 8 9 9 9 10 10 10 11 11 11 12 12 12 12 12 13 13 13 13 13 13 9 3 3 4 5 6 12 13 12 9 5 6 6 5 5 6 6 6 7 8 8 6 7 7 8 13 13 5 6 10 13 14 11 14 17 12 11 11 10 10 11 15 15 13 16 16 16 21 24 25 28 31 29 27 25 24 24 23
8 8 8 8 9 9 9 10 10 10 11 11 11 12 12 12 13 13 13 13 14 14 14 14 14 14 14 13 14 12 7 10 12 9 8 11 14 14 11 7 5 6 8 6 6 6 6 7 9 9 7 6 7 9 9 11 10 6 5 8 13 17 17 18 17 14 14 13 13 13 13 16 14 12 16 19 24 29 28 27 29 31 29 28 25 24 24 24
9 10 10 10 10 11 11 11 11 12 12 12 13 13 13 13 14 14 14 14 15 15 15 15 15 15 14 13 13 10 9 14 14 11 13 15 14 13 8 6 5 6 9 7 7 7 6 8 10 10 7 6 8 9 8 8 8 7 6 8 12 14 15 17 17 15 15 17 16 14 14 16 18 18 16 21 30 32 29 27 27 27 27 26 24 23 23 24
10 10 10 10 11 11 11 11 11 12 12 12 13 13 13 13 13 14 14 14 14 14 14 14 15 14 14 12 9 7 10 13 14 15 15 13 11 10 8 7 6 7 8 7 8 7 8 8 8 7 5 8 9 9 9 6 4 4 5 8 10 11 14 17 19 19 19 19 15 11 13 17 20 18 14 22 28 27 24 23 21 20 22 22 21 22 22 23
10 10 10 10 10 10 10 10 10 11 11 11 12 12 12 12 13 13 14 14 14 14 14 14 15 13 13 12 5 4 8 9 10 12 12 11 11 10 10 9 7 7 8 8 9 9 9 8 8 7 7 9 9 8 9 7 4 5 9 13 14 15 18 20 21 24 22 21 18 12 12 18 20 12 9 20 24 21 21 19 18 18 20 21 22 23 22 22
10 9 9 9 9 9 9 9 9 10 10 11 11 11 11 11 12 12 13 13 13 13 13 13 14 13 14 12 6 8 10 8 9 11 13 15 15 13 11 10 8 8 8 8 8 10 10 10 10 9 6 4 6 9 8 5 6 9 11 12 14 17 20 21 21 23 19 13 15 13 11 18 17 8 13 24 22 19 20 18 18 17 19 20 23 25 24 22
9 8 8 8 8 8 8 8 9 9 10 10 10 10 10 11 11 11 12 12 12 12 12 12 13 13 13 13 14 15 14 13 14 15 17 18 17 15 12 12 10 9 9 9 9 11 12 13 11 7 6 6 7 8 5 4 5 6 7 7 11 13 13 18 20 22 17 7 10 7 5 12 9 6 16 22 14 13 17 18 20 19 20 21 23 25 23 21
8 8 7 7 7 7 7 7 8 8 9 9 9 9 10 10 10 11 11 11 11 11 11 11 11 12 11 12 15 15 13 14 14 15 17 17 17 15 12 11 11 11 12 12 12 12 14 14 12 9 10 10 7 6 6 8 7 5 6 5 8 8 6 14 16 13 11 7 14 8 2 8 8 10 16 16 11 13 17 21 24 22 21 22 21 21 20 18
8 7 7 6 6 6 6 6 7 8 8 8 9 10 10 11 11 11 12 12 12 11 11 11 11 10 9 12 15 13 13 14 14 16 17 17 17 15 12 10 10 12 12 14 14 13 13 12 12 10 10 10 9 9 8 9 6 5 7 5 5 4 3 10 7 7 3 6 14 8 2 7 10 14 14 14 17 19 20 26 28 22 21 21 19 18 18 13
8 7 7 6 6 6 6 6 7 8 9 9 10 11 11 12 12 12 12 12 12 12 11 10 10 8 8 13 14 11 10 11 13 14 13 14 15 12 11 10 10 11 11 13 14 13 12 10 9 7 7 8 9 8 5 4 4 4 5 4 3 4 4 9 4 10 5 4 11 8 2 7 8 14 18 19 22 22 22 28 28 22 20 20 18 16 11 8
8 7 7 7 7 7 7 7 7 8 9 10 10 11 11 12 13 13 13 12 12 12 10 9 9 6 6 10 12 9 8 9 11 11 11 12 12 10 10 8 7 9 11 12 12 11 10 7 6 5 5 5 4 4 3 3 3 4 4 4 5 5 5 5 2 10 9 4 6 7 3 5 5 14 26 28 27 24 22 26 27 22 19 18 15 8 9 11
8 8 8 8 8 8 8 8 8 8 9 10 11 11 12 14 14 13 13 12 11 9 7 7 6 5 8 11 11 9 8 8 9 10 11 11 10 10 9 5 5 7 8 8 8 7 6 5 4 4 5 4 3 3 3 3 3 4 4 4 5 5 4 4 2 4 9 7 5 7 6 7 6 13 28 32 30 24 20 23 24 20 19 15 9 12 15 15
10 9 9 8 8 8 8 8 8 8 9 11 12 12 13 14 13 13 12 10 8 5 5 5 3 2 6 10 10 7 7 8 7 8 9 7 6 7 5 3 4 5 5 4 5 7 6 6 6 2 3 4 4 3 3 5 5 5 5 4 5 5 5 6 6 2 3 4 5 6 7 8 8 11 21 29 31 25 18 20 22 20 16 9 15 18 18 18
10 10 9 8 8 8 8 8 9 10 11 12 13 14 13 10 11 10 7 4 3 2 2 4 6 3 4 7 10 10 11 10 8 9 9 7 5 6 7 5 6 7 7 4 5 10 8 4 4 2 3 5 6 6 8 9 9 9 8 6 6 6 5 6 9 8 4 5 5 6 7 6 8 9 12 24 32 25 18 21 23 15 8 18 21 20 20 20
11 10 9 8 7 7 8 9 11 12 13 13 14 14 10 8 7 5 3 5 7 9 10 9 10 13 14 13 11 12 14 12 11 12 10 7 5 7 8 7 8 7 4 3 5 10 10 4 3 5 5 9 10 10 11 10 10 10 8 7 7 6 7 7 10 8 2 0 5 5 6 7 8 8 12 25 27 19 18 19 10 11 20 22 21 21 21 21
12 11 9 8 6 7 8 9 10 12 13 13 13 10 6 6 4 3 7 12 14 14 17 19 17 19 21 18 14 16 16 11 11 12 9 6 6 7 9 9 6 4 6 7 5 4 7 4 5 7 10 13 12 11 11 8 7 8 6 5 6 4 7 8 9 9 1 3 4 4 6 8 9 11 15 20 16 12 10 4 13 22 23 21 22 22 21 21
13 11 9 7 6 7 7 8 9 11 12 11 9 6 4 6 5 7 9 11 15 16 18 22 23 24 25 22 19 20 17 9 8 10 8 8 10 7 9 10 5 3 7 7 5 2 3 4 7 11 12 12 11 10 10 8 6 6 5 4 5 4 7 7 7 5 2 2 3 4 6 7 11 15 15 16 12 2 12 20 22 21 22 21 21 20 19 20
12 10 8 7 7 8 8 8 9 10 9 7 6 5 6 6 6 9 8 7 14 17 17 21 24 26 23 19 19 19 15 10 9 11 9 9 12 10 8 8 6 5 5 6 5 3 4 5 11 16 13 10 10 10 8 7 5 4 4 3 5 5 4 5 3 1 2 2 4 5 6 5 11 14 12 17 8 14 25 26 24 22 23 21 20 19 18 18
11 10 9 9 9 9 9 9 9 9 7 5 5 5 6 6 6 8 7 6 8 10 16 19 18 17 15 12 13 12 10 9 8 8 11 11 12 10 8 8 6 5 6 7 8 8 6 7 9 11 10 9 8 8 6 5 4 4 6 5 6 7 6 5 3 3 3 3 4 3 5 4 7 9 7 10 3 18 21 23 24 21 20 20 20 19 18 17
12 11 11 11 9 9 9 8 8 6 4 3 4 3 4 5 5 7 6 5 5 6 12 13 10 10 11 11 11 8 7 8 6 7 13 15 12 8 7 9 7 5 7 9 10 9 8 8 8 6 6 6 5 6 6 5 3 5 5 6 7 6 5 4 4 5 4 4 2 2 2 3 3 5 7 7 2 10 12 16 19 18 19 19 18 18 16 17
14 13 13 12 10 9 7 5 4 3 1 2 3 2 3 3 4 6 4 3 4 3 4 5 5 4 5 6 6 5 4 4 6 9 13 15 13 8 3 7 7 4 5 6 5 4 4 3 1 2 4 4 4 6 6 5 3 4 3 2 2 0 1 2 3 1 1 3 2 3 1 4 4 6 8 9 4 7 8 10 14 17 18 18 18 16 14 16
16 14 15 13 10 8 5 3 3 1 1 3 2 1 1 2 3 4 2 3 4 2 4 2 3 2 3 3 5 5 2 2 5 7 12 13 12 8 3 4 5 4 3 1 1 1 3 4 3 1 3 3 4 6 5 6 4 3 3 2 3 1 1 1 0 2 3 3 4 4 4 5 6 7 8 11 7 7 8 7 11 15 17 18 18 16 14 15
17 16 15 13 11 9 7 7 5 3 5 6 3 1 0 1 2 3 1 3 1 4 4 3 3 3 4 5 6 4 1 3 3 3 11 14 10 6 5 5 3 3 3 4 3 2 0 4 3 3 4 4 5 3 2 6 4 2 2 0 2 2 0 1 2 4 3 3 4 5 6 4 6 6 7 12 10 7 9 7 9 13 17 18 17 15 14 14
17 15 14 13 12 10 10 9 7 7 7 6 4 3 0 1 1 2 2 3 1 3 3 3 4 5 5 5 6 4 2 2 1 1 7 11 11 6 2 4 5 5 2 4 5 3 1 3 2 3 5 4 3 1 2 2 3 2 2 1 1 2 3 4 5 4 2 3 5 6 7 4 5 5 5 9 8 6 7 5 8 12 17 18 16 14 13 14
17 14 13 13 12 11 10 8 6 7 7 5 5 3 1 1 1 1 4 3 1 2 4 5 4 6 7 5 4 6 4 2 3 5 5 5 9 7 2 2 3 3 3 3 6 5 1 4 2 2 4 2 4 3 3 2 2 2 1 1 2 4 4 4 4 3 1 4 7 9 12 8 4 5 3 2 4 9 9 6 7 11 16 18 16 13 11 13
15 14 13 13 13 11 10 8 6 7 8 7 5 4 2 1 1 4 5 1 1 1 4 4 3 5 7 3 2 5 5 3 6 7 4 2 5 6 3 2 0 1 2 3 6 5 2 2 1 4 6 3 5 2 2 3 2 2 1 1 3 3 2 2 1 2 2 5 6 6 11 12 5 4 2 5 5 10 10 9 10 11 15 18 17 15 12 12
14 14 14 13 13 12 11 9 7 8 9 8 7 4 1 1 3 4 2 2 1 2 2 1 2 4 4 1 1 4 3 4 7 6 3 4 4 4 4 3 3 1 2 2 2 2 3 5 4 3 4 5 4 1 1 3 2 2 2 2 1 2 0 1 1 2 3 6 4 4 1 6 6 6 3 7 7 4 7 11 13 13 15 17 16 15 14 12
15 14 13 13 14 13 13 11 9 11 11 9 7 4 2 2 4 3 4 3 1 1 2 2 1 1 2 1 1 2 1 2 7 6 4 5 4 4 7 8 5 1 2 1 2 1 1 2 4 3 1 6 7 3 1 1 2 5 4 4 4 1 2 3 3 3 3 4 2 6 6 1 2 4 3 6 7 10 16 20 19 18 18 18 16 15 14 12
17 15 14 14 14 14 14 13 12 13 12 11 8 4 2 5 3 1 4 5 1 2 2 3 1 2 3 2 2 3 1 1 6 5 2 3 3 3 5 9 8 2 1 1 2 3 3 3 4 4 1 7 9 4 1 1 4 7 5 4 4 3 3 3 3 3 3 2 2 2 2 1 2 0 3 9 11 15 21 22 21 21 19 17 16 15 13 11
17 17 16 16 16 15 14 15 15 14 15 14 7 3 5 6 2 1 4 3 1 2 2 1 1 1 3 3 3 3 2 2 4 3 2 4 4 3 3 4 6 4 2 2 2 2 4 4 1 1 2 8 7 3 1 3 1 3 1 2 2 3 3 3 4 4 2 2 3 2 2 4 1 4 6 9 12 15 18 19 20 19 16 16 15 13 11 9
16 17 17 17 16 15 15 16 16 16 19 14 5 5 8 5 2 2 1 2 1 1 2 1 2 1 2 3 3 4 2 2 2 2 2 4 4 5 4 1 4 7 5 3 1 0 2 3 1 1 2 3 3 1 1 1 0 1 2 1 3 2 2 1 4 3 2 3 4 3 4 4 1 3 5 8 9 9 11 13 16 16 15 15 14 12 10 10
17 17 17 17 15 13 16 19 17 19 19 12 5 6 5 3 2 2 2 2 2 2 3 1 0 1 2 2 2 4 3 1 2 2 1 4 4 4 5 1 3 4 5 1 0 1 1 1 3 4 2 0 1 1 2 2 2 3 1 2 1 2 2 1 2 3 4 5 4 5 6 6 3 1 3 6 7 7 7 9 12 14 14 14 12 10 10 11
16 16 17 17 15 13 16 21 20 18 15 9 7 6 2 1 2 3 2 1 1 2 2 2 2 2 2 3 2 3 4 1 2 3 1 3 3 1 2 1 4 3 2 3 1 0 2 0 4 2 2 2 2 1 2 2 2 3 2 1 1 0 2 1 2 2 5 6 4 5 7 6 4 2 1 4 7 8 7 7 8 10 12 12 10 9 9 10
13 11 11 13 15 16 17 21 22 17 9 5 7 6 2 2 7 11 4 1 1 2 1 3 3 2 4 4 3 1 4 2 3 3 1 2 3 2 3 1 1 4 5 5 2 1 3 0 2 1 3 2 1 1 1 1 2 3 2 2 1 2 3 2 2 2 4 6 5 4 6 5 3 2 2 3 8 9 8 7 6 8 11 11 9 8 7 7
12 8 6 9 14 18 20 21 21 15 7 5 6 5 2 2 7 14 11 4 1 2 2 3 4 5 6 5 6 3 2 2 2 2 1 1 2 1 4 3 2 2 6 5 2 1 1 2 3 1 2 2 0 2 5 4 2 0 1 1 1 1 2 2 2 2 3 4 5 5 6 5 1 2 3 5 7 7 7 7 6 8 10 9 8 7 6 5
11 5 4 9 14 21 24 19 13 10 5 4 5 4 5 5 3 7 11 12 7 3 3 2 3 5 5 5 6 3 1 1 3 3 3 3 4 2 3 4 2 2 3 3 1 0 0 1 2 2 2 2 3 4 3 2 2 0 1 3 4 2 1 2 4 4 3 3 4 5 7 5 1 2 3 6 5 5 9 9 7 9 10 9 8 7 7 6
11 3 4 10 14 24 26 13 7 8 5 6 8 7 8 6 4 7 9 11 9 5 4 3 3 4 4 5 5 2 2 2 3 4 3 3 6 3 1 3 3 3 3 1 1 2 2 1 1 3 4 6 7 7 7 8 7 6 4 3 3 2 2 3 5 3 2 3 4 5 7 4 1 1 2 5 6 9 13 13 12 12 12 10 8 7 6 6
12 6 6 10 17 27 23 7 7 8 5 7 10 10 10 6 4 7 9 8 7 5 5 3 4 6 5 4 4 4 4 3 4 5 3 3 4 1 2 2 1 3 2 1 0 3 3 1 1 3 4 6 9 10 9 7 5 5 4 2 1 2 2 2 2 1 1 4 4 5 7 4 2 1 2 5 9 11 13 14 14 13 12 9 8 7 7 7
11 8 8 12 20 28 19 6 6 8 7 8 8 9 12 9 7 8 8 8 7 5 4 3 5 7 6 5 5 5 4 3 4 5 3 3 1 3 4 3 3 3 2 1 0 1 1 0 0 1 3 3 5 6 4 3 3 1 2 3 3 4 5 3 0 1 1 5 7 6 6 4 1 1 1 3 5 7 9 11 12 13 13 11 11 11 11 11
7 7 8 14 24 28 20 12 7 6 9 11 10 10 11 8 10 13 10 9 9 6 3 4 6 7 5 4 4 4 4 4 3 2 1 2 1 4 5 6 5 5 6 6 5 2 0 0 1 2 3 4 4 4 1 2 3 1 3 4 5 5 6 5 2 3 4 5 5 5 6 4 2 2 3 4 4 5 7 10 12 13 15 15 15 16 16 14
7 6 5 11 23 28 26 21 12 5 7 10 9 10 12 9 8 13 13 10 11 11 6 4 3 2 2 3 3 3 4 5 4 2 2 1 1 2 6 8 8 7 5 5 6 4 1 1 2 4 5 5 6 6 5 3 3 4 6 7 8 9 8 5 3 6 6 5 5 8 10 9 7 8 7 4 6 7 7 11 15 17 18 18 19 19 18 15
6 6 6 8 14 19 20 20 16 8 6 9 6 5 12 12 6 7 9 8 8 10 8 5 5 4 3 5 4 4 5 5 5 6 6 5 3 2 7 8 7 5 4 3 5 4 1 2 4 6 6 6 7 9 10 8 7 7 8 10 11 10 9 7 8 8 5 4 7 11 11 11 10 11 9 5 4 5 6 11 17 20 21 21 20 18 16 13
7 5 9 11 8 9 12 16 18 14 10 9 6 4 8 11 9 6 7 6 5 6 5 5 8 9 7 6 4 3 5 5 6 6 5 4 2 2 4 4 5 5 4 3 5 4 2 3 5 4 6 8 9 10 10 9 8 8 9 11 11 12 12 11 11 10 6 7 10 10 11 13 11 9 10 10 11 12 14 18 21 19 17 17 17 15 13 11
9 6 8 10 6 6 12 18 18 15 14 11 7 6 8 10 10 7 5 5 3 4 5 5 6 7 6 6 6 5 5 4 4 3 1 1 2 2 2 2 3 4 3 3 2 1 1 3 4 4 5 8 9 9 8 7 9 10 11 12 13 15 15 13 12 13 11 12 12 12 14 14 11 11 12 13 15 15 13 14 11 5 7 10 11 11 11 11
8 6 4 5 4 2 6 12 12 9 11 12 9 8 7 7 9 5 5 6 4 4 6 7 5 3 2 0 2 4 4 1 2 2 2 2 2 2 1 0 2 3 3 3 1 3 1 2 2 2 4 7 9 8 6 5 7 9 11 13 14 15 14 13 13 13 12 12 13 14 14 13 10 8 6 6 8 8 7 6 3 2 2 5 7 8 10 11
10 6 2 2 3 3 2 5 8 7 7 10 10 8 7 8 8 4 3 5 6 4 6 8 5 3 4 2 0 1 4 8 7 4 5 4 1 1 1 1 3 3 1 1 0 2 1 2 3 2 4 7 8 9 6 3 4 8 13 16 16 14 13 12 11 10 10 12 13 13 11 9 5 1 3 2 2 4 3 2 1 0 2 4 6 7 9 10
12 10 5 2 2 5 4 3 4 6 7 8 9 8 7 7 8 6 3 3 5 5 4 7 7 5 3 2 2 5 9 11 9 7 6 4 2 1 1 1 1 3 3 2 2 2 2 1 1 2 5 7 8 8 3 3 4 9 12 13 14 14 14 13 11 11 13 12 10 10 8 5 3 1 1 1 2 3 2 2 3 1 2 3 5 8 9 10
Wind_Direction
161 161 160 161 158 158 164 168 179 182 195 203 213 229 244 257 265 271 277 283 288 292 297 303 308 310 312 313 317 318 320 319 315 312 308 306 275 267 323 333 325 315 297 272 262 255 277 291 197 209 225 251 243 220 239 230 203 210 222 224 245 248 263 341 333 328 354 343 338 312 328 342 333 332 299 285 283 281 288 289 290 286 274 272 282 292 284 277
187 186 194 196 201 218 235 243 246 258 262 265 258 257 261 262 270 269 275 279 280 286 288 295 301 302 306 310 314 317 319 317 313 310 306 295 202 164 14 347 325 302 295 272 269 223 193 226 213 217 220 239 235 205 233 218 192 218 237 242 251 253 286 316 315 325 345 325 319 318 331 342 332 327 315 291 293 297 295 288 293 291 283 283 286 289 281 272
214 215 228 232 243 249 256 261 263 266 266 273 271 271 273 270 273 271 273 276 277 281 282 290 294 298 302 305 311 316 319 317 315 314 309 157 147 157 334 342 326 273 273 240 195 168 210 250 223 223 228 240 232 195 209 192 189 219 222 251 251 265 296 305 311 321 324 322 329 326 334 334 313 309 302 287 293 290 280 280 288 288 291 302 305 305 297 281
237 239 248 251 260 261 264 270 270 272 272 273 275 276 278 276 277 276 276 278 280 281 283 288 290 295 298 303 308 313 319 319 311 291 183 143 131 312 317 331 321 251 250 221 187 187 230 251 224 231 242 254 248 214 195 191 193 205 200 230 266 293 311 301 308 317 323 334 345 329 324 314 302 306 297 283 292 272 263 273 279 283 291 300 301 302 298 288
253 255 260 262 266 269 271 273 274 277 279 280 282 282 283 283 282 282 282 283 284 285 287 289 291 295 298 302 306 313 323 325 140 195 177 172 309 308 305 316 299 234 236 224 196 198 224 232 222 237 241 260 262 237 216 213 208 219 236 245 264 284 292 287 299 315 331 333 322 309 303 297 302 302 287 272 265 258 266 276 280 283 287 290 293 295 292 287
261 264 269 270 271 274 273 276 278 279 280 281 282 283 284 284 284 285 286 287 287 288 290 291 294 296 300 305 306 313 319 295 308 306 223 256 299 300 299 299 271 224 220 215 197 207 222 221 219 232 232 243 261 251 251 237 216 211 251 253 266 274 277 288 295 305 321 322 304 291 286 293 298 288 282 272 260 265 270 274 279 282 284 286 288 289 288 286
265 268 271 273 273 275 275 277 278 279 279 279 280 281 282 282 283 284 283 286 287 289 290 292 294 296 302 306 306 311 290 269 289 288 260 279 290 293 294 275 246 221 218 215 198 207 219 218 220 235 246 244 254 253 263 269 245 224 248 265 275 278 278 288 293 296 303 299 286 284 284 283 279 279 283 274 269 272 272 272 276 279 281 283 282 281 283 284
265 267 270 272 273 274 274 276 276 278 278 278 280 280 281 282 283 283 284 285 286 288 289 291 292 294 299 302 309 310 276 268 277 271 271 284 285 287 283 252 247 231 227 221 201 205 221 228 234 246 257 250 260 277 292 302 275 250 261 270 271 277 282 291 296 293 288 283 279 278 274 268 269 276 277 273 276 279 278 275 273 275 277 276 276 277 280 282
263 265 268 269 271 272 272 274 274 275 276 278 280 281 283 284 285 286 286 286 287 288 289 289 290 292 295 297 308 300 273 267 265 263 273 284 283 281 272 260 260 246 236 220 202 211 226 233 246 256 276 279 282 297 297 294 268 259 298 306 298 294 295 294 292 287 280 276 273 268 265 265 271 277 272 267 273 281 285 278 269 268 271 270 271 278 283 283
263 263 265 266 268 270 271 274 275 277 279 280 283 285 287 288 289 290 290 291 290 290 290 288 288 290 290 291 288 268 274 269 259 261 271 284 285 281 277 268 263 254 242 223 209 217 232 244 264 280 297 294 291 289 281 272 274 310 320 313 303 295 289 283 277 273 270 269 262 257 270 273 277 282 270 269 274 280 280 277 272 265 262 265 275 284 289 288
262 263 266 267 268 272 274 277 280 282 284 287 289 290 293 294 295 295 295 295 294 295 294 290 290 288 287 285 245 241 269 267 263 270 277 287 287 281 275 268 264 255 237 230 229 228 235 249 264 278 288 294 297 285 280 273 285 315 323 310 294 287 283 275 269 264 261 258 243 239 272 281 280 259 249 270 284 281 272 276 278 271 264 269 283 293 297 296
263 266 267 268 271 275 277 279 281 284 287 290 293 294 297 298 299 300 300 300 300 300 297 294 292 287 286 277 253 256 271 268 269 276 279 285 285 281 274 266 261 243 224 224 236 239 236 240 250 256 267 294 312 292 295 328 319 317 312 301 284 280 274 267 264 257 252 225 188 188 296 286 274 243 262 277 290 288 284 286 284 283 282 283 291 297 301 301
262 265 268 272 274 275 278 280 282 284 288 292 297 301 302 304 306 307 306 306 305 303 300 297 293 289 283 270 269 275 278 273 273 273 275 279 281 281 274 262 253 241 232 225 226 235 235 237 246 251 267 286 300 288 303 313 306 283 270 264 279 290 274 267 264 244 239 169 147 137 324 281 281 282 291 302 309 309 305 295 289 291 292 293 297 298 302 309
258 260 265 269 271 275 277 281 287 291 295 301 307 309 310 312 312 312 310 309 308 305 302 297 295 294 276 270 282 285 277 275 270 268 272 275 275 275 271 261 247 239 237 234 231 234 238 243 250 256 268 271 274 288 303 298 279 262 266 246 255 283 260 270 258 160 159 150 148 136 234 265 288 289 297 310 311 314 307 295 293 297 300 302 305 305 311 330
255 258 262 266 270 274 278 285 292 298 303 308 312 315 317 317 316 316 313 310 309 304 301 297 293 288 276 280 286 280 273 268 262 268 273 272 271 271 265 255 242 237 233 238 239 237 244 250 251 254 267 262 258 280 299 279 260 251 267 265 234 236 257 284 251 159 165 175 158 145 221 252 272 290 300 305 303 303 297 291 292 298 301 303 306 313 331 16
259 262 263 268 273 277 283 288 294 303 308 313 319 320 321 321 321 318 313 310 305 300 297 291 283 272 267 280 282 276 269 261 265 275 271 267 268 263 262 257 238 235 230 233 239 239 243 244 238 244 262 268 237 241 275 275 270 236 231 259 250 240 257 290 234 170 158 125 179 186 221 259 269 297 300 298 295 291 287 286 290 297 300 303 312 344 41 46
260 262 264 268 272 277 282 286 294 305 311 317 321 323 325 324 322 316 312 308 300 297 289 274 275 278 265 267 273 271 268 270 272 272 269 268 261 254 259 252 219 226 223 228 230 219 220 209 200 236 241 251 256 249 284 273 256 249 240 255 261 268 281 298 339 151 141 130 209 218 221 251 262 283 286 290 293 286 280 286 293 302 305 317 5 62 61 44
257 260 262 264 269 276 282 290 300 310 319 324 325 328 329 326 322 316 308 299 290 295 290 246 206 259 266 258 259 256 265 278 274 272 272 267 257 246 230 195 196 189 171 198 201 174 182 194 183 226 238 226 249 226 230 240 239 266 274 284 289 295 311 307 308 305 160 181 219 224 229 245 256 263 273 285 288 284 285 291 296 301 312 11 64 66 55 48
253 255 258 260 266 277 290 306 315 321 328 330 331 331 331 330 324 317 306 286 255 265 293 196 186 238 287 269 266 267 272 274 271 273 270 260 248 210 183 169 177 168 156 164 178 174 172 171 170 190 237 226 228 209 217 234 242 263 272 280 291 292 299 290 283 292 301 275 252 245 259 269 276 275 277 279 280 284 291 289 291 305 22 69 70 61 56 55
249 251 256 261 272 291 309 322 325 328 331 333 337 338 344 347 333 329 333 287 265 267 278 262 241 257 272 277 277 276 274 274 270 267 264 254 224 191 173 159 174 187 195 176 165 178 173 167 193 189 215 232 235 232 236 239 242 259 270 273 280 284 284 278 281 294 25 65 263 269 287 286 285 285 276 274 277 286 286 283 305 53 74 74 70 65 63 60
250 253 259 270 291 310 319 329 328 329 332 333 341 348 352 346 326 311 319 300 283 274 271 268 259 254 261 268 271 272 273 275 266 255 247 220 182 172 169 165 173 201 224 201 142 148 175 191 219 204 220 235 243 252 260 269 269 275 281 283 286 282 279 280 285 290 82 120 272 300 301 291 293 283 272 273 277 288 294 346 67 75 73 68 69 68 66 66
255 259 265 280 305 316 320 329 326 326 330 331 339 345 316 317 306 294 308 297 285 278 263 262 260 253 255 259 259 259 257 255 246 232 227 199 173 175 175 174 191 204 214 198 122 105 207 224 229 224 233 240 250 263 268 276 284 288 290 293 285 265 273 280 277 280 96 134 274 313 300 291 291 282 279 279 273 354 68 79 80 79 74 67 65 63 63 66
260 265 274 291 306 313 318 329 327 323 327 325 324 320 312 320 309 301 303 277 283 286 268 258 254 251 252 251 247 245 240 241 240 226 218 187 174 190 189 181 215 225 211 188 169 203 213 215 225 226 236 245 252 259 264 268 261 255 254 262 267 251 260 271 250 192 92 197 245 286 288 286 284 278 285 279 259 91 85 87 84 83 81 75 71 66 60 57
267 274 283 295 302 308 316 327 324 318 320 318 310 312 326 331 318 319 310 263 272 278 260 251 242 242 241 231 235 237 232 239 244 223 202 182 175 191 206 206 221 235 225 204 209 229 235 249 243 224 228 242 253 260 259 264 263 246 229 222 242 244 244 256 291 349 348 287 258 286 294 270 266 274 298 287 161 100 92 92 87 86 86 81 76 69 60 54
271 278 285 294 299 301 311 324 323 323 325 311 310 326 347 343 331 336 323 265 259 243 241 240 226 232 231 226 237 237 230 231 222 188 178 184 185 180 205 215 216 233 233 225 229 240 247 261 257 225 221 231 243 257 245 234 261 263 238 225 235 245 258 280 334 354 346 308 286 66 332 262 257 291 301 291 151 105 96 98 95 90 86 80 74 66 61 60
267 274 283 292 296 298 309 323 315 337 350 280 308 346 349 350 344 343 342 271 264 202 194 215 206 220 220 219 224 206 219 223 198 185 179 188 193 181 194 206 203 231 246 239 246 253 233 214 195 204 222 213 220 253 246 223 242 255 246 272 277 302 321 306 328 327 212 275 249 123 205 256 273 279 267 265 228 119 104 102 100 95 89 85 80 71 62 61
266 277 283 286 288 288 283 254 255 301 221 240 288 346 333 348 357 4 8 271 263 145 124 151 168 180 178 164 163 167 194 164 160 189 194 196 196 194 221 194 185 221 235 245 310 288 205 175 90 79 212 205 216 247 236 195 201 239 242 337 22 51 322 316 156 219 225 277 267 207 208 256 271 250 240 255 240 140 120 111 100 97 95 91 87 80 70 63
272 278 278 276 276 272 260 253 246 216 220 228 239 276 337 9 12 35 1 278 290 116 120 127 142 176 179 165 168 164 127 148 150 200 197 197 191 186 228 237 254 262 205 171 199 302 168 162 160 169 184 208 210 231 219 180 184 217 209 82 62 81 74 135 181 226 245 295 269 213 198 244 270 242 227 244 232 152 132 132 114 112 108 102 99 95 87 77
270 269 266 265 265 261 255 258 242 217 224 224 218 234 218 184 51 49 261 259 70 106 135 130 137 160 155 155 176 179 144 152 171 192 183 192 189 175 225 256 295 308 243 191 215 271 43 135 196 180 176 207 188 94 7 172 178 194 183 93 97 181 209 196 201 213 226 259 246 207 184 209 273 260 224 232 216 145 131 132 114 115 114 108 106 103 97 91
260 257 255 253 254 252 252 255 237 216 216 209 201 194 176 211 134 159 221 233 10 70 125 131 130 152 167 173 187 192 189 139 113 133 144 174 189 197 257 288 303 305 271 242 250 259 129 95 1 243 212 191 116 86 14 56 132 155 129 1 268 240 221 200 188 165 185 260 244 212 193 193 271 283 227 218 168 145 144 145 130 121 118 115 111 105 97 93
252 248 246 245 246 247 247 241 218 200 193 186 177 158 152 200 199 215 218 236 337 120 132 141 136 161 187 194 174 191 192 152 141 153 155 137 173 204 258 297 91 308 309 282 264 261 190 152 265 232 218 163 106 99 9 42 88 119 103 307 292 275 204 168 133 130 187 256 260 234 202 193 216 278 318 41 91 146 154 157 151 134 121 118 114 110 104 96
242 241 243 245 244 241 235 228 205 187 180 173 169 158 129 221 224 225 201 57 348 192 155 152 145 173 197 195 158 180 179 160 164 182 198 163 169 197 215 209 157 173 261 233 250 260 210 214 198 181 209 178 138 103 6 13 65 133 177 205 263 309 223 195 182 160 210 240 274 352 64 189 216 270 314 44 53 82 106 118 125 119 113 111 109 109 107 100
238 240 243 243 241 234 226 217 194 179 175 171 169 145 84 237 226 201 189 207 250 126 99 80 104 199 179 170 186 144 75 143 169 194 208 173 194 210 203 214 206 196 236 238 338 302 282 265 179 147 265 190 175 157 179 270 163 168 186 174 177 224 259 245 230 226 237 238 292 15 27 13 245 291 328 71 63 55 79 100 111 113 111 108 105 103 100 94
239 244 248 243 237 228 221 212 190 179 178 174 167 133 165 227 237 129 206 221 206 110 96 70 56 230 218 231 207 142 102 204 167 173 180 164 200 229 212 215 212 198 194 266 299 216 248 298 189 171 140 176 186 204 210 126 161 195 202 162 173 195 214 239 247 244 250 276 311 6 31 257 206 331 50 86 86 76 84 96 103 105 107 105 102 96 89 86
242 244 243 239 233 226 220 208 192 182 180 173 164 175 204 216 227 202 233 244 191 137 121 80 90 186 240 241 198 165 166 193 171 158 184 196 203 220 222 203 190 179 161 215 241 190 225 255 179 138 146 161 185 246 334 66 139 228 214 108 199 210 195 244 263 246 242 299 283 240 226 249 187 94 93 93 90 88 91 97 98 98 101 100 96 92 90 88
243 239 236 234 230 225 214 201 190 186 183 171 167 217 216 218 216 209 284 340 335 95 90 190 179 173 259 255 208 187 135 121 174 161 194 216 228 234 235 163 158 185 185 186 229 5 224 230 120 147 179 156 174 212 49 94 108 22 62 128 232 219 135 248 281 273 246 260 259 238 249 274 8 80 114 106 96 98 99 99 100 101 101 97 94 96 96 89
237 234 233 230 226 221 208 193 184 184 182 178 198 218 217 217 216 243 1 14 343 18 56 130 246 282 270 289 220 175 127 63 187 187 219 227 232 228 216 151 72 198 208 172 239 228 148 241 232 199 197 170 149 58 345 232 137 96 187 247 295 344 42 157 252 273 256 258 255 249 268 278 275 256 133 121 113 110 108 104 105 106 105 103 102 103 99 93
230 231 234 232 220 210 200 189 185 184 180 189 221 229 228 189 243 305 7 64 320 33 81 190 256 320 279 289 323 129 126 69 180 175 204 235 229 121 160 145 34 343 317 77 84 285 89 284 258 187 146 182 163 71 318 253 139 121 186 301 54 339 300 244 215 229 244 258 257 243 261 265 246 238 151 159 145 126 125 125 119 118 118 115 112 110 108 108
219 222 237 235 212 200 194 188 188 190 186 198 221 229 225 216 263 272 272 43 37 92 137 219 219 268 261 256 287 140 151 196 211 186 168 225 233 86 70 51 47 356 6 67 116 330 74 178 266 98 97 94 63 64 141 286 352 55 41 356 86 172 215 225 256 241 233 257 265 249 255 260 253 302 347 135 139 139 142 137 125 119 121 123 125 126 124 121
204 203 238 225 199 192 189 184 187 193 200 212 214 219 225 227 249 245 234 220 176 156 196 221 209 233 252 253 260 252 188 214 245 245 232 267 281 47 45 24 95 40 12 40 95 28 56 218 244 326 62 78 70 197 187 210 252 75 48 290 243 194 209 241 273 238 218 251 264 257 257 252 249 352 24 95 119 138 139 129 121 120 125 140 152 155 159 154
193 196 242 207 189 185 182 179 188 199 205 217 216 215 223 227 215 208 208 209 210 199 190 212 230 237 246 252 254 246 206 240 243 243 247 239 248 266 25 20 57 119 37 34 73 70 277 233 243 274 276 231 226 222 214 246 281 255 179 208 215 212 204 260 260 228 204 229 239 252 260 248 217 341 38 88 95 104 114 116 125 140 154 168 172 174 180 180
185 208 236 200 189 182 177 178 207 207 208 216 217 212 206 213 201 179 184 194 203 207 196 206 237 236 238 245 248 226 200 234 232 234 254 238 236 247 33 24 20 61 79 68 111 88 83 87 289 269 260 262 270 277 285 296 299 291 270 230 226 232 199 237 256 256 257 252 245 251 259 253 224 311 51 94 105 115 128 137 149 165 177 181 183 191 196 199
189 210 209 194 189 180 175 187 218 208 230 224 216 215 205 204 198 182 178 182 190 196 194 203 224 224 228 232 243 244 228 235 236 228 246 262 252 267 131 148 66 46 29 295 5 52 59 90 245 267 265 272 278 278 279 282 277 269 270 262 267 286 287 250 228 196 284 269 266 261 258 263 268 291 75 111 121 127 145 158 162 170 178 184 197 209 211 212
197 209 199 188 185 181 181 206 211 206 231 225 218 218 212 217 215 196 185 180 181 184 188 203 221 222 225 224 231 238 224 231 243 228 230 242 213 82 85 89 64 46 35 38 91 351 343 91 125 277 280 288 286 283 295 347 12 344 304 340 358 342 336 342 270 168 211 236 245 258 261 261 249 116 118 137 138 147 169 175 171 174 182 198 213 217 214 214
191 204 201 191 186 188 199 215 211 214 223 221 229 226 218 226 218 210 208 192 188 194 193 210 221 223 232 232 224 218 209 222 243 255 272 243 134 76 62 47 48 79 84 73 66 62 260 208 125 188 238 253 267 271 258 44 20 328 302 324 332 317 309 319 313 277 266 249 248 263 267 273 294 247 222 196 187 187 185 188 192 197 203 213 218 218 217 218
192 197 190 186 190 201 217 224 227 243 222 217 233 228 221 229 216 207 211 210 209 212 216 229 221 210 243 233 227 234 229 228 231 249 270 218 166 80 89 79 77 98 99 70 71 84 104 267 213 211 231 245 258 274 290 317 306 282 293 297 290 284 282 283 268 257 268 291 280 262 265 278 285 277 268 220 195 201 200 205 215 222 225 224 219 219 222 223
205 208 186 174 190 209 225 229 228 233 224 216 217 216 219 223 218 201 204 209 210 210 216 221 203 190 201 204 214 239 238 237 232 237 239 223 216 160 136 115 97 108 112 101 114 116 124 249 239 233 240 252 262 276 291 299 287 273 279 278 275 276 269 254 250 255 275 296 269 262 270 278 274 277 289 293 248 225 217 229 240 243 238 228 219 219 222 224
209 240 210 186 185 205 215 220 219 217 224 228 221 222 222 216 210 201 193 190 190 194 202 209 207 212 215 211 215 225 230 239 238 241 244 221 194 157 153 121 107 136 143 136 147 131 118 243 258 260 258 265 269 271 277 281 280 276 272 271 274 273 264 256 258 261 256 254 261 268 271 270 271 277 286 294 293 288 285 282 277 262 238 221 214 211 210 212
220 272 237 199 196 207 205 210 213 213 221 228 230 234 231 221 215 200 160 153 176 199 201 210 216 215 220 230 229 224 230 235 229 239 278 72 74 100 141 70 91 134 122 102 146 109 87 235 254 255 262 270 267 266 273 275 276 274 268 266 267 265 265 268 270 267 261 259 266 272 270 270 275 280 282 289 296 306 315 313 303 266 204 197 198 199 204 213
228 265 251 221 236 223 200 206 203 205 218 223 228 233 231 230 226 199 148 155 170 190 199 210 223 196 119 53 237 235 241 170 130 147 108 87 49 67 116 352 88 96 66 60 337 327 344 253 283 317 288 276 270 273 283 283 279 280 277 271 265 264 269 271 268 268 268 268 268 267 270 274 274 280 296 306 313 339 12 19 26 74 154 189 195 205 218 225
240 241 244 290 244 182 156 197 195 199 216 218 223 226 220 226 227 207 154 162 159 160 185 191 192 144 110 105 30 43 84 94 100 102 96 99 113 58 28 42 93 93 70 100 317 339 323 274 320 333 274 265 271 276 283 320 318 284 270 265 261 262 265 260 259 262 260 265 271 271 271 270 264 333 43 52 18 18 34 44 28 33 188 193 210 226 233 235
244 237 236 311 240 197 182 177 195 205 212 216 222 224 223 230 225 212 203 148 112 104 148 159 147 132 149 188 139 107 106 106 112 113 99 100 131 157 308 321 126 151 163 152 160 193 197 206 238 247 256 264 266 264 273 24 315 270 258 254 252 253 255 256 257 255 252 257 265 266 260 239 204 127 12 6 73 67 48 32 17 320 208 204 240 251 255 254